Gwinn, MI

6:04 PM EDT on April 27, 2017 (GMT -0400)
Sawyer International

Weather History for KSAW - September, 2013

Change the Weather History Date:

Thursday, September 19, 2013

  Actual Average (KESC) Record (KESC)
Temperature  
Mean Temperature 68 °F -  
Max Temperature 73 °F 64 °F 79 °F (1955)
Min Temperature 62 °F 50 °F 30 °F (2012)
Cooling Degree Days 2    
Growing Degree Days 18 (Base 50)    
Moisture  
Dew Point 64 °F    
Average Humidity 96    
Maximum Humidity 100    
Minimum Humidity 83    
Precipitation  
Precipitation 0.13 in - - ()
Sea Level Pressure  
Sea Level Pressure 29.82 in    
Wind  
Wind Speed 8 mph (South)    
Max Wind Speed 15 mph    
Max Gust Speed 20 mph    
Visibility 2 miles    
Events Fog , Rain , Thunderstorm    
Averages and records for this station are not official NWS values.
T = Trace of Precipitation, MM = Missing Value Source: NWS Daily Summary

Daily Weather History Graph

Daily Weather History Graph

Search for Another Location

Airport or City:

Trip Planner

Search our weather history database for the weather conditions in past years. The results will help you decide how hot, cold, wet, or windy it might be!

Date:

Astronomy

Sep. 19, 2013 Rise Set
Actual Time 7:33 AM EDT 7:52 PM EDT
Civil Twilight 7:02 AM EDT 8:22 PM EDT
Nautical Twilight 6:27 AM EDT 8:58 PM EDT
Astronomical Twilight 5:50 AM EDT 9:34 PM EDT
Moon 7:45 PM EDT (9/19) 7:44 AM EDT (9/19)
Length of Visible Light 13h 19m
Length of Day
12h 19m
Full, 100% of the Moon is Illuminated
Sep 19
Full
Sep 26
Last Quarter
Oct 4
New
Oct 11
First Quarter
Oct 18
Full

Hourly Weather History & Observations

Time (EDT) Temp. Dew Point Humidity Pressure Visibility Wind Dir Wind Speed Gust Speed Precip Events Conditions
12:17 AM 62.6 °F 61.3 °F 96% 29.90 in 3.0 mi South 6.9 mph - N/A   Overcast
12:36 AM 62.6 °F 61.3 °F 96% 29.90 in 2.5 mi South 8.1 mph - N/A   Overcast
12:57 AM 62.6 °F 61.3 °F 96% 29.89 in 3.0 mi South 8.1 mph - N/A   Overcast
1:16 AM 62.6 °F 61.3 °F 96% 29.89 in 3.0 mi South 6.9 mph - N/A   Overcast
1:37 AM 62.6 °F 61.7 °F 97% 29.89 in 3.0 mi South 6.9 mph - N/A   Overcast
1:56 AM 62.8 °F 61.7 °F 96% 29.89 in 3.0 mi SSW 6.9 mph - N/A   Overcast
2:17 AM 62.8 °F 61.7 °F 96% 29.88 in 2.5 mi South 6.9 mph - N/A   Overcast
2:37 AM 62.8 °F 61.7 °F 96% 29.87 in 2.5 mi SSW 5.8 mph - N/A Thunderstorm Overcast
2:56 AM 62.8 °F 61.7 °F 96% 29.87 in 2.0 mi SSW 5.8 mph - N/A   Overcast
3:17 AM 62.8 °F 61.7 °F 96% 29.86 in 2.0 mi SSW 4.6 mph - N/A   Overcast
3:36 AM 62.8 °F 61.7 °F 96% 29.86 in 1.8 mi SSW 4.6 mph - N/A   Overcast
3:57 AM 62.8 °F 61.9 °F 97% 29.87 in 2.0 mi South 5.8 mph - N/A   Overcast
4:16 AM 62.8 °F 61.9 °F 97% 29.87 in 1.5 mi South 6.9 mph - N/A   Overcast
4:37 AM 63.0 °F 62.1 °F 97% 29.87 in 2.0 mi South 6.9 mph - N/A   Overcast
4:57 AM 63.0 °F 62.1 °F 97% 29.87 in 1.5 mi South 8.1 mph - N/A   Overcast
5:16 AM 63.0 °F 62.1 °F 97% 29.87 in 1.5 mi South 9.2 mph - N/A   Overcast
5:37 AM 63.0 °F 62.1 °F 97% 29.87 in 1.5 mi South 9.2 mph - N/A   Overcast
5:57 AM 63.1 °F 62.2 °F 97% 29.86 in 1.5 mi South 9.2 mph - N/A   Overcast
6:55 AM 62.6 °F 62.6 °F 100% 29.85 in 1.5 mi South 9.2 mph - N/A   Overcast
7:50 AM 62.6 °F 62.6 °F 100% 29.87 in 0.8 mi South 9.2 mph - N/A   Overcast
8:50 AM 64.4 °F 62.6 °F 94% 29.86 in 0.2 mi South 9.2 mph - N/A Fog Fog
9:55 AM 64.4 °F 64.4 °F 100% 29.86 in 0.2 mi South 9.2 mph - N/A Fog Fog
10:50 AM 64.4 °F 64.4 °F 100% 29.84 in 0.8 mi South 9.2 mph - N/A   Overcast
11:55 AM 66.2 °F 64.4 °F 94% 29.83 in 0.8 mi South 10.4 mph - N/A   Overcast
12:50 PM 66.2 °F 66.2 °F 100% 29.82 in 1.0 mi South 15.0 mph - N/A   Overcast
1:50 PM 66.2 °F 66.2 °F 100% 29.82 in 1.0 mi SSW 13.8 mph - N/A   Overcast
2:50 PM 69.8 °F 68.0 °F 94% 29.79 in 5.0 mi SSW 13.8 mph - N/A   Overcast
3:50 PM 73.4 °F 68.0 °F 83% 29.75 in 10.0 mi South 12.7 mph - N/A   Mostly Cloudy
4:50 PM 73.4 °F 68.0 °F 83% 29.74 in 10.0 mi South 11.5 mph - N/A   Overcast
5:50 PM 69.8 °F 66.2 °F 88% 29.75 in 7.0 mi South 10.4 mph 19.6 mph N/A   Overcast
6:45 PM 68.0 °F 66.2 °F 94% 29.76 in 3.0 mi SSW 11.5 mph - N/A Rain , Thunderstorm Thunderstorms and Rain
7:29 PM 66.2 °F 66.2 °F 100% 29.73 in 2.5 mi South 6.9 mph - N/A Rain Light Rain
7:50 PM 66.2 °F 66.2 °F 100% 29.73 in 2.5 mi SSE 12.7 mph - N/A   Overcast
8:50 PM 66.2 °F 64.4 °F 94% 29.74 in 2.0 mi South 11.5 mph - N/A   Overcast
9:45 PM 66.2 °F 64.4 °F 94% 29.72 in 1.5 mi South 9.2 mph - N/A Rain Light Rain
10:16 PM 65.7 °F 64.8 °F 97% 29.71 in 1.2 mi South 9.2 mph - 0.03 in Rain Rain
10:37 PM 65.7 °F 64.8 °F 97% 29.71 in 0.5 mi South 5.8 mph - 0.03 in Fog Fog
10:56 PM 65.7 °F 64.8 °F 97% 29.71 in 0.2 mi South 8.1 mph - 0.04 in Fog , Thunderstorm Fog
11:17 PM 65.7 °F 64.8 °F 97% 29.71 in 0.5 mi Calm Calm - 0.08 in Rain Heavy Rain
11:36 PM 65.5 °F 64.8 °F 98% 29.70 in 2.5 mi SSE 5.8 mph - 0.09 in Rain Light Rain
11:57 PM 65.5 °F 64.6 °F 97% 29.71 in 1.5 mi SSW 4.6 mph - 0.09 in Rain Rain